[[{"header":{"parameterUnit":"m.s-1","parameterCategory":1,"la1":30.2991,"la2":30.254,"lo1":-89.0895,"lo2":-89.0444,"dy":0.0017,"dx":0.0017,"nx":28,"ny":28,"refTime":"2025-07-25T21:00:00:Z","depth":0,"parameterNumber":2,"parameterNumberName":"U-component_of_WINDS"},"data":[0,0,0,0,0,0,0,0,0,0,0,0,0,0,0,0,0,0,0,0,0,0,0,0,0,0,0,0,0,0,0,0,0,0,0,0,0,0,0,0,0,0,0,0,0,0,0,0,0,0,0,0,0,0,0,0,0,0,-0.0869,-0.0868,0,-0.0751,-0.075,-0.0749,-0.0684,-0.0683,-0.0683,-0.0683,-0.056,-0.0557,-0.0554,0,0,0,0,0,0,0,0,0,0,0,0,0,-0.1038,-0.1035,-0.0869,-0.0868,-0.0866,-0.0751,-0.075,-0.0748,-0.0684,-0.0683,-0.0683,-0.0683,-0.0561,-0.0557,-0.0554,0,0,0,0,0,0,0,0,0,0,0,0,0,-0.0947,-0.1034,-0.087,-0.082,-0.0815,-0.0752,-0.075,-0.0748,-0.0684,-0.0683,-0.0683,-0.0683,-0.0562,-0.0558,-0.0553,-0.0529,0,0,-0.0539,-0.0537,0,0,0,0,0,0,0,0,-0.0952,-0.0941,-0.0829,-0.0824,-0.0817,-0.0732,-0.0764,-0.0674,-0.0684,-0.0733,-0.0683,-0.0683,-0.0617,-0.0608,-0.0586,-0.0524,-0.0518,-0.0538,-0.0536,-0.0534,-0.0532,0,0,0,0,0,0,0,-0.0959,-0.0945,-0.0823,-0.0828,-0.082,-0.0804,-0.0791,-0.0747,-0.0678,-0.0729,-0.0724,-0.0711,-0.0614,-0.0591,-0.0583,-0.0516,-0.0539,-0.0534,-0.0531,-0.053,-0.0429,-0.0429,0,0,0,0,0,0,-0.0973,-0.0951,-0.0826,-0.0819,-0.0886,-0.0801,-0.0786,-0.076,-0.0678,-0.0666,-0.0711,-0.0709,-0.0599,-0.0589,-0.0578,-0.0545,-0.0534,-0.0529,-0.0527,-0.0429,-0.0429,-0.0429,0,0,0,0,0,0,-0.0977,-0.0962,-0.0831,-0.0884,-0.0866,-0.0798,-0.0769,-0.0757,-0.0734,-0.0665,-0.0652,-0.0701,-0.0599,-0.0585,-0.0542,-0.054,-0.0527,-0.0523,-0.0429,-0.0429,-0.0429,-0.0479,0,0,0,0,0,0,-0.0982,-0.0964,-0.0955,-0.0884,-0.0863,-0.0797,-0.0769,-0.0755,-0.0727,-0.0722,-0.0652,-0.064,-0.0597,-0.055,-0.0538,-0.0534,-0.0519,-0.0428,-0.0429,-0.0429,-0.0477,-0.0481,-0.0484,0,0,0,0,0,-0.0988,-0.0973,-0.0954,-0.094,-0.085,-0.0797,-0.0785,-0.0737,-0.0727,-0.0716,-0.0672,-0.0642,-0.0543,-0.0546,-0.0532,-0.0526,-0.0428,-0.0429,-0.0429,-0.0476,-0.048,-0.0484,0,0,0,0,0,0,-0.1044,-0.0963,-0.0941,-0.0903,-0.0858,-0.0787,-0.0772,-0.0744,-0.07,-0.0697,-0.0639,-0.0624,-0.0586,-0.0552,-0.0557,-0.0499,-0.0482,-0.048,-0.0523,-0.0527,-0.053,-0.0539,-0.0515,0,0,0,0,0,-0.1052,-0.1016,-0.0947,-0.092,-0.0898,-0.084,-0.0815,-0.0782,-0.0732,-0.0713,-0.0665,-0.0618,-0.0576,-0.055,-0.0507,-0.0473,-0.0456,-0.0462,-0.0466,-0.0469,-0.0467,-0.0446,-0.0448,-0.043,-0.043,-0.043,0,0,-0.1067,-0.1019,-0.1,-0.093,-0.0891,-0.0855,-0.0824,-0.0787,-0.076,-0.0707,-0.0664,-0.0628,-0.0571,-0.0533,-0.0513,-0.0503,-0.0469,-0.0469,-0.0472,-0.0468,-0.0447,-0.0449,-0.045,-0.043,-0.043,-0.043,0,0,-0.1078,-0.1038,-0.101,-0.0973,-0.0915,-0.0876,-0.087,-0.0803,-0.0777,-0.0733,-0.0693,-0.066,-0.0589,-0.0551,-0.0522,-0.052,-0.049,-0.0508,-0.0525,-0.0506,-0.0507,-0.0508,-0.0507,-0.0508,-0.0506,-0.0506,-0.0507,0,-0.1104,-0.1049,-0.1,-0.0966,-0.0937,-0.0888,-0.0861,-0.0826,-0.0757,-0.0738,-0.0728,-0.0638,-0.0597,-0.0549,-0.0549,-0.0527,-0.0518,-0.0515,-0.0511,-0.0512,-0.0512,-0.051,-0.051,-0.0509,-0.0509,-0.0508,-0.0508,0,-0.1085,-0.1048,-0.1033,-0.0968,-0.0937,-0.0907,-0.0853,-0.0827,-0.0798,-0.076,-0.0716,-0.0665,-0.0612,-0.0599,-0.0569,-0.0547,-0.0542,-0.0523,-0.0504,-0.0517,-0.0514,-0.0513,-0.0512,-0.0512,-0.0511,-0.051,0,0,-0.1125,-0.1035,-0.1031,-0.1001,-0.0934,-0.0904,-0.0872,-0.0821,-0.08,-0.0755,-0.0726,-0.0668,-0.065,-0.0617,-0.0583,-0.0566,-0.0568,-0.0548,-0.0546,-0.0554,-0.0541,-0.0555,-0.0555,-0.0549,-0.0549,-0.0548,-0.0545,0,-0.1125,-0.1065,-0.102,-0.0977,-0.0942,-0.0897,-0.0868,-0.0825,-0.0789,-0.0754,-0.0714,-0.0674,-0.0653,-0.0633,-0.0615,-0.0572,-0.0565,-0.0572,-0.0521,-0.052,-0.0536,-0.0554,-0.0569,-0.0568,-0.0544,-0.0544,-0.0544,0,-0.1117,-0.1074,-0.1028,-0.0966,-0.0949,-0.0925,-0.0875,-0.0842,-0.0792,-0.0767,-0.0732,-0.0697,-0.0661,-0.0647,-0.0596,-0.0602,-0.0579,-0.0555,-0.0554,-0.0546,-0.0532,-0.0547,-0.0567,-0.0567,-0.0542,-0.0542,-0.0542,0,-0.1151,-0.1082,-0.1045,-0.1021,-0.0948,-0.0932,-0.09,-0.085,-0.0822,-0.0779,-0.076,-0.0713,-0.0687,-0.0651,-0.0605,-0.0599,-0.0559,-0.0541,-0.0537,-0.0538,-0.0529,-0.053,-0.0546,-0.0516,-0.0516,-0.0516,-0.0516,0,-0.1155,-0.1128,-0.1059,-0.1036,-0.1005,-0.0955,-0.0925,-0.089,-0.0846,-0.0815,-0.0773,-0.0746,-0.0686,-0.0652,-0.0615,-0.0579,-0.0567,-0.0546,-0.0536,-0.0549,-0.0552,-0.0532,-0.0531,-0.0516,-0.0516,-0.0516,-0.0516,0,-0.1187,-0.114,-0.1096,-0.1031,-0.1014,-0.0994,-0.0938,-0.0915,-0.0878,-0.084,-0.0828,-0.077,-0.0727,-0.0677,-0.0618,-0.0593,-0.0559,-0.0546,-0.0576,-0.0571,-0.0569,-0.057,-0.0572,-0.057,-0.0543,-0.0543,-0.0543,0,-0.1192,-0.1171,-0.1104,-0.1081,-0.1051,-0.1015,-0.0987,-0.0937,-0.0909,-0.0851,-0.0835,-0.0789,-0.0749,-0.0683,-0.0634,-0.0589,-0.0573,-0.0578,-0.0566,-0.058,-0.0573,-0.0575,-0.0572,-0.058,-0.0581,-0.0581,-0.0582,0,-0.1207,-0.1185,-0.1147,-0.1101,-0.1069,-0.103,-0.0989,-0.0973,-0.0914,-0.0886,-0.0842,-0.0811,-0.0751,-0.0706,-0.0655,-0.0622,-0.0592,-0.0586,-0.0582,-0.0595,-0.0613,-0.0603,-0.0584,-0.0586,-0.0585,-0.0585,-0.0585,-0.0585,-0.1225,-0.1204,-0.1154,-0.1113,-0.1078,-0.1041,-0.1016,-0.0976,-0.0939,-0.0886,-0.0859,-0.0816,-0.0767,-0.0695,-0.0664,-0.0629,-0.0619,-0.0614,-0.0612,-0.0612,-0.0615,-0.062,-0.062,-0.0619,-0.0619,-0.0619,-0.0619,0,-0.1238,-0.1204,-0.1166,-0.1111,-0.1079,-0.1055,-0.1009,-0.0983,-0.0946,-0.0903,-0.0866,-0.0816,-0.0772,-0.0722,-0.0675,-0.0657,-0.0642,-0.0646,-0.0646,-0.0639,-0.0627,-0.0635,-0.0659,-0.0659,-0.0659,-0.0659,-0.0659,-0.0659,-0.124,-0.1203,-0.1176,-0.1121,-0.1087,-0.1045,-0.1021,-0.0987,-0.0952,-0.0899,-0.0863,-0.083,-0.0784,-0.0734,-0.0693,-0.0679,-0.0664,-0.0672,-0.0654,-0.0644,-0.064,-0.0637,-0.0644,-0.067,-0.067,-0.0669,-0.0669,-0.0669]},{"header":{"parameterUnit":"m.s-1","parameterCategory":1,"la1":30.2991,"la2":30.254,"lo1":-89.0895,"lo2":-89.0444,"dy":0.0017,"dx":0.0017,"nx":28,"ny":28,"refTime":"2025-07-25T21:00:00:Z","depth":0,"parameterNumber":3,"parameterNumberName":"V-component_of_WINDS"},"data":[0,0,0,0,0,0,0,0,0,0,0,0,0,0,0,0,0,0,0,0,0,0,0,0,0,0,0,0,0,0,0,0,0,0,0,0,0,0,0,0,0,0,0,0,0,0,0,0,0,0,0,0,0,0,0,0,0,0,2.4888,2.4888,0,2.4902,2.4902,2.4902,2.4957,2.4958,2.4959,2.496,2.4971,2.497,2.4969,0,0,0,0,0,0,0,0,0,0,0,0,0,2.4905,2.4905,2.4888,2.4888,2.4888,2.4902,2.4902,2.4902,2.4956,2.4958,2.4959,2.4961,2.4971,2.497,2.4969,0,0,0,0,0,0,0,0,0,0,0,0,0,2.4906,2.4905,2.4888,2.4917,2.492,2.4901,2.4902,2.4902,2.4956,2.4958,2.496,2.4962,2.4971,2.497,2.4968,2.4922,0,0,2.4964,2.4964,0,0,0,0,0,0,0,0,2.4906,2.4905,2.4913,2.4915,2.4918,2.4929,2.4912,2.4908,2.4956,2.4942,2.496,2.4963,2.4955,2.4955,2.4953,2.4922,2.4923,2.4964,2.4963,2.4963,2.4962,0,0,0,0,0,0,0,2.4906,2.4905,2.4893,2.4913,2.4916,2.4928,2.4931,2.4911,2.4938,2.4943,2.4948,2.4949,2.4957,2.4955,2.4954,2.4923,2.4964,2.4963,2.4962,2.4962,2.4853,2.4851,0,0,0,0,0,0,2.4902,2.4905,2.4893,2.4894,2.4917,2.4927,2.4929,2.4924,2.4938,2.4942,2.4947,2.4951,2.4956,2.4956,2.4955,2.49,2.4963,2.4961,2.4961,2.4855,2.4853,2.4851,0,0,0,0,0,0,2.4902,2.4901,2.4892,2.49,2.49,2.4924,2.4918,2.4923,2.4921,2.4941,2.4945,2.494,2.4957,2.4957,2.493,2.4901,2.4961,2.496,2.4858,2.4854,2.4852,2.4791,0,0,0,0,0,0,2.4903,2.49,2.4884,2.49,2.49,2.4868,2.4916,2.4922,2.4919,2.4924,2.4935,2.4939,2.4959,2.4931,2.4928,2.49,2.4959,2.486,2.4856,2.4853,2.4796,2.4786,2.4778,0,0,0,0,0,2.4903,2.4865,2.4883,2.4881,2.4879,2.4866,2.4866,2.4891,2.4916,2.4899,2.4912,2.4939,2.4905,2.4928,2.4925,2.4896,2.4862,2.4857,2.4853,2.48,2.4788,2.4778,0,0,0,0,0,0,2.4844,2.4868,2.4887,2.4854,2.4858,2.4875,2.4854,2.4878,2.4874,2.4879,2.4909,2.4911,2.4879,2.4885,2.4911,2.4852,2.4888,2.4883,2.4849,2.4838,2.4829,2.4828,2.4957,0,0,0,0,0,2.4828,2.4816,2.4837,2.4805,2.4806,2.483,2.4825,2.4844,2.4849,2.485,2.4861,2.4864,2.4854,2.4846,2.4838,2.4797,2.48,2.4776,2.4767,2.476,2.4754,2.4732,2.4721,2.4835,2.4835,2.4835,0,0,2.4792,2.4804,2.4795,2.4794,2.4799,2.4785,2.4831,2.4814,2.4804,2.4847,2.4823,2.4831,2.4835,2.4801,2.4786,2.4805,2.4724,2.4754,2.4748,2.4747,2.4726,2.4715,2.4706,2.4832,2.4833,2.4833,0,0,2.4721,2.473,2.4704,2.4708,2.4716,2.4732,2.4726,2.474,2.4747,2.4724,2.4756,2.4743,2.4726,2.4728,2.4726,2.4656,2.468,2.4652,2.4606,2.4584,2.4575,2.4567,2.4541,2.4532,2.4647,2.4647,2.4647,0,2.4676,2.4658,2.4687,2.4669,2.4667,2.4707,2.468,2.4683,2.4687,2.4684,2.4706,2.4684,2.469,2.4657,2.4639,2.4637,2.463,2.4651,2.4575,2.4567,2.456,2.4535,2.4525,2.4644,2.4644,2.4644,2.4645,0,2.4602,2.4588,2.4566,2.457,2.4566,2.4544,2.4568,2.456,2.458,2.4593,2.4568,2.4577,2.4571,2.4564,2.4583,2.4533,2.4544,2.4569,2.4607,2.4545,2.4522,2.4513,2.4639,2.464,2.4641,2.4642,0,0,2.4492,2.4514,2.4505,2.4507,2.4519,2.4509,2.4488,2.4483,2.4475,2.4477,2.4459,2.4443,2.4467,2.4465,2.4484,2.4465,2.4408,2.4493,2.4494,2.4476,2.4352,2.4332,2.432,2.4424,2.4423,2.4421,2.4351,0,2.4424,2.439,2.4416,2.4377,2.4364,2.4402,2.4384,2.4388,2.44,2.439,2.4403,2.4391,2.4424,2.4423,2.4406,2.4418,2.4383,2.4424,2.4406,2.4405,2.4403,2.4309,2.4287,2.422,2.4342,2.4341,2.434,0,2.4339,2.4338,2.4298,2.4312,2.4308,2.4291,2.4288,2.4279,2.4284,2.4295,2.4293,2.4317,2.4296,2.4333,2.4304,2.4331,2.4326,2.433,2.4328,2.4327,2.4368,2.4303,2.42,2.4189,2.4326,2.4327,2.4328,0,2.4262,2.425,2.4225,2.4226,2.4242,2.4229,2.4235,2.4243,2.4238,2.4236,2.4233,2.4228,2.4225,2.422,2.4241,2.4267,2.4208,2.4248,2.4215,2.4214,2.4199,2.42,2.4093,2.4198,2.4198,2.4198,2.4198,0,2.4181,2.4155,2.419,2.4174,2.4146,2.4176,2.4146,2.4156,2.4162,2.4148,2.4181,2.4166,2.4196,2.4184,2.4201,2.4174,2.4172,2.4179,2.4183,2.4175,2.4174,2.4171,2.4175,2.4196,2.4196,2.4197,2.4197,0,2.409,2.4113,2.4087,2.4105,2.4109,2.4087,2.4102,2.4087,2.4102,2.4083,2.408,2.4103,2.4091,2.4112,2.4102,2.4114,2.4075,2.4087,2.4073,2.4076,2.4041,2.4044,2.3928,2.3913,2.4028,2.4027,2.4026,0,2.4036,2.4017,2.4033,2.4027,2.4031,2.402,2.4016,2.4045,2.4039,2.4044,2.4028,2.4019,2.4014,2.3992,2.4007,2.3999,2.4011,2.3971,2.401,2.4002,2.4009,2.4009,2.4007,2.3962,2.3961,2.3959,2.3959,0,2.3939,2.3951,2.3945,2.3942,2.3937,2.3936,2.3937,2.3929,2.396,2.3951,2.394,2.3936,2.3926,2.3917,2.3913,2.3918,2.3942,2.3946,2.3938,2.3929,2.3921,2.3924,2.405,2.3949,2.395,2.395,2.3951,2.3951,2.3864,2.3849,2.3858,2.3849,2.3854,2.3854,2.3841,2.3854,2.3846,2.3842,2.3859,2.3843,2.3849,2.3847,2.3849,2.3836,2.3854,2.3842,2.3839,2.3835,2.3829,2.3924,2.3836,2.3836,2.3836,2.3837,2.3837,0,2.3767,2.3775,2.3767,2.3769,2.3762,2.3788,2.379,2.3782,2.3769,2.3773,2.3767,2.3753,2.3744,2.3758,2.3751,2.3738,2.3749,2.3735,2.3736,2.3736,2.3815,2.3822,2.3726,2.3726,2.3726,2.3726,2.3726,2.3726,2.3716,2.3691,2.3704,2.3681,2.3689,2.3676,2.3675,2.3675,2.3678,2.3662,2.3655,2.3665,2.3673,2.3666,2.3659,2.3663,2.3658,2.364,2.3648,2.372,2.3731,2.3741,2.3748,2.3639,2.3639,2.357,2.357,2.3569]}]]